Regional Weather Roundup
Issued by NWS

Home | Current Version | Previous Version | Graphics & Text | Print | Product List | Glossary On
Versions: 1 2 3 4 5 6 7 8 9 10 11 12 13 14 15 16 17 18 19 20 21 22 23 24 25 26 27 28 29 30 31 32 33 34 35 36 37 38 39 40 41 42 43 44 45 46 47 48 49 50
000
ASUS45 KBOI 060910
RWRID
WEATHER ROUNDUP FOR IDAHO
NATIONAL WEATHER SERVICE BOISE ID
300 AM MDT WED MAY 06 2015

NOTE: "FAIR" INDICATES FEW OR NO CLOUDS BELOW 12000 FEET
WITH NO SIGNIFICANT WEATHER AND/OR OBSTRUCTIONS TO VISIBILITY

IDZ012-014-061000-
SOUTHWEST IDAHO


CITY           SKY/WX    TMP DP  RH WIND       PRES   REMARKS
BOISE          PTCLDY    47  24  40 W12       29.87S
CALDWELL       PTCLDY    46  21  36 W16       29.90F
MOUNTAIN HOME  CLOUDY    50  21  32 NW17      29.84S
$$

IDZ016-017-061000-
SOUTHCENTRAL IDAHO


CITY           SKY/WX    TMP DP  RH WIND       PRES   REMARKS
BURLEY         MOCLDY    48  23  37 SW13      29.82S
JEROME         MOCLDY    46  23  40 SW12      29.84S
TWIN FALLS     PTCLDY    47  20  34 S17       29.84S
$$

IDZ019>023-061000-
SOUTHEAST IDAHO


CITY           SKY/WX    TMP DP  RH WIND       PRES   REMARKS
IDAHO FALLS    PTCLDY    48  42  80 S9        29.80S
POCATELLO      CLEAR     51  22  31 SW16      29.82S
REXBURG        PTCLDY    45  43  93 E5        29.80F
$$

IDZ006-010-011-018-031-032-061000-
CENTRAL IDAHO MOUNTAINS


CITY           SKY/WX    TMP DP  RH WIND       PRES   REMARKS
MCCALL         CLEAR     39  27  62 N7        29.89F WCI  34
HAILEY         PTCLDY    41  30  65 NW12      29.85S
STANLEY          N/A     26  19  74 SE3       29.91F
SALMON         MOCLDY    48  28  46 N5        29.87S
CHALLIS        PTCLDY    44  30  57 N6        29.86S
$$

IDZ002-004-006-007-026-061000-
NORTHERN IDAHO


CITY           SKY/WX    TMP DP  RH WIND       PRES   REMARKS
LEWISTON       CLEAR     46  27  47 S7        29.96S
LOWELL           N/A     42  37  82 VRB3      30.00S
COEUR D`ALENE  MOCLDY    41  32  70 SE6       29.95S
MULLAN PASS    CLEAR     32  22  66 SW6       29.92F WCI  26
$$



USA.gov is the U.S. government's official web portal to all federal, state and local government web resources and services.